Winchester, VA

4:22 PM EDT on October 19, 2017 (GMT -0400)
Winchester Regional

Weather History for KOKV - January, 2013

Change the Weather History Date:

Wednesday, January 2, 2013

  Actual Average Record
Temperature  
Mean Temperature 30 °F -  
Max Temperature 33 °F 43 °F 71 °F (2000)
Min Temperature 28 °F 27 °F 10 °F (2002)
Degree Days  
Heating Degree Days 34    
Moisture  
Dew Point 22 °F    
Average Humidity 69    
Maximum Humidity 87    
Minimum Humidity 55    
Precipitation  
Precipitation 0.00 in - - ()
Sea Level Pressure  
Sea Level Pressure 30.10 in    
Wind  
Wind Speed 5 mph (NNW)    
Max Wind Speed 16 mph    
Max Gust Speed 21 mph    
Visibility 10 miles    
Events      
Averages and records for this station are not official NWS values.
T = Trace of Precipitation, MM = Missing Value Source: NWS Daily Summary

Daily Weather History Graph

Daily Weather History Graph

Search for Another Location

Airport or City:

Trip Planner

Search our weather history database for the weather conditions in past years. The results will help you decide how hot, cold, wet, or windy it might be!

Date:

Astronomy

Jan. 02, 2013 Rise Set
Actual Time 7:32 AM EST 5:01 PM EST
Civil Twilight 7:02 AM EST 5:31 PM EST
Nautical Twilight 6:28 AM EST 6:05 PM EST
Astronomical Twilight 5:56 AM EST 6:37 PM EST
Moon 10:29 PM EST (1/2) 10:15 AM EST (1/2)
Length of Visible Light 10h 29m
Length of Day
9h 29m
Waning Gibbous, 75% of the Moon is Illuminated
Jan 2
Waning Gibbous
Jan 4
Last Quarter
Jan 11
New
Jan 18
First Quarter
Jan 26
Full

Hourly Weather History & Observations

Time (EST) Temp. Windchill Dew Point Humidity Pressure Visibility Wind Dir Wind Speed Gust Speed Precip Events Conditions
12:15 AM 33.8 °F 28.6 °F 30.2 °F 87% 29.99 in 10.0 mi NNW 5.8 mph - N/A   Mostly Cloudy
12:35 AM 33.8 °F 29.6 °F 30.2 °F 87% 29.99 in 10.0 mi NNW 4.6 mph - N/A   Mostly Cloudy
12:55 AM 33.8 °F 28.6 °F 28.4 °F 81% 30.00 in 10.0 mi NNW 5.8 mph - N/A   Overcast
1:15 AM 33.8 °F 30.8 °F 28.4 °F 81% 30.00 in 10.0 mi North 3.5 mph - N/A   Overcast
1:35 AM 33.8 °F 30.8 °F 28.4 °F 81% 30.00 in 10.0 mi North 3.5 mph - N/A   Overcast
1:55 AM 33.8 °F - 28.4 °F 81% 30.00 in 10.0 mi Calm Calm - N/A   Overcast
2:15 AM 33.8 °F - 28.4 °F 81% 30.00 in 10.0 mi Calm Calm - N/A   Overcast
2:35 AM 33.8 °F - 26.6 °F 75% 30.01 in 10.0 mi Calm Calm - N/A   Overcast
2:55 AM 33.8 °F 30.8 °F 26.6 °F 75% 30.01 in 10.0 mi North 3.5 mph - N/A   Overcast
3:35 AM 33.8 °F - 26.6 °F 75% 29.99 in 10.0 mi Calm Calm - N/A   Overcast
3:55 AM 33.8 °F - 26.6 °F 75% 30.00 in 10.0 mi Calm Calm - N/A   Overcast
4:15 AM 33.8 °F - 26.6 °F 75% 30.00 in 10.0 mi Calm Calm - N/A   Overcast
4:35 AM 32.0 °F - 26.6 °F 80% 30.01 in 10.0 mi Calm Calm - N/A   Overcast
4:55 AM 32.0 °F - 26.6 °F 80% 30.01 in 10.0 mi Calm Calm - N/A   Overcast
5:15 AM 32.0 °F - 26.6 °F 80% 30.01 in 10.0 mi Calm Calm - N/A   Overcast
5:35 AM 32.0 °F 28.7 °F 26.6 °F 80% 30.02 in 10.0 mi NE 3.5 mph - N/A   Overcast
5:55 AM 32.0 °F - 26.6 °F 80% 30.03 in 10.0 mi Calm Calm - N/A   Overcast
6:15 AM 32.0 °F 28.7 °F 26.6 °F 80% 30.03 in 10.0 mi North 3.5 mph - N/A   Overcast
6:35 AM 30.2 °F 26.7 °F 24.8 °F 80% 30.04 in 10.0 mi NE 3.5 mph - N/A   Overcast
6:55 AM 30.2 °F - 24.8 °F 80% 30.05 in 10.0 mi Calm Calm - N/A   Overcast
7:15 AM 30.2 °F - 23.0 °F 75% 30.06 in 10.0 mi Calm Calm - N/A   Mostly Cloudy
7:35 AM 30.2 °F 25.4 °F 23.0 °F 75% 30.08 in 10.0 mi East 4.6 mph - N/A   Overcast
7:55 AM 30.2 °F 24.3 °F 23.0 °F 75% 30.08 in 10.0 mi NNE 5.8 mph - N/A   Mostly Cloudy
8:15 AM 30.2 °F 24.3 °F 23.0 °F 75% 30.08 in 10.0 mi NNW 5.8 mph - N/A   Scattered Clouds
8:35 AM 30.2 °F 26.7 °F 21.2 °F 69% 30.08 in 10.0 mi NNW 3.5 mph - N/A   Scattered Clouds
8:55 AM 32.0 °F 27.5 °F 23.0 °F 69% 30.09 in 10.0 mi North 4.6 mph - N/A   Clear
9:15 AM 32.0 °F 24.2 °F 23.0 °F 69% 30.10 in 10.0 mi NNW 9.2 mph - N/A   Clear
9:35 AM 32.0 °F 23.0 °F 23.0 °F 69% 30.11 in 10.0 mi NNW 11.5 mph 17.3 mph N/A   Clear
10:15 AM 32.0 °F 24.8 °F 21.2 °F 64% 30.12 in 10.0 mi North 8.1 mph - N/A   Clear
10:35 AM 32.0 °F 24.2 °F 21.2 °F 64% 30.12 in 10.0 mi NNW 9.2 mph - N/A   Clear
10:55 AM 32.0 °F 25.6 °F 23.0 °F 69% 30.12 in 10.0 mi NNW 6.9 mph - N/A   Scattered Clouds
11:15 AM 32.0 °F 23.0 °F 23.0 °F 69% 30.11 in 10.0 mi NW 11.5 mph - N/A   Scattered Clouds
11:35 AM 32.0 °F 22.5 °F 23.0 °F 69% 30.10 in 10.0 mi NW 12.7 mph 17.3 mph N/A   Clear
11:55 AM 32.0 °F 22.5 °F 23.0 °F 69% 30.10 in - NW 12.7 mph - N/A   Unknown
12:15 PM 32.0 °F 22.5 °F 23.0 °F 69% 30.08 in 10.0 mi NW 12.7 mph - N/A   Clear
12:35 PM 32.0 °F 21.2 °F 21.2 °F 64% 30.08 in 10.0 mi NW 16.1 mph 20.7 mph N/A   Clear
12:55 PM 32.0 °F 21.6 °F 23.0 °F 69% 30.08 in 10.0 mi NW 15.0 mph 18.4 mph N/A   Clear
1:15 PM 33.8 °F 23.9 °F 21.2 °F 60% 30.08 in 10.0 mi NW 15.0 mph 19.6 mph N/A   Clear
1:35 PM 32.0 °F 23.6 °F 21.2 °F 64% 30.08 in 10.0 mi NNW 10.4 mph - N/A   Clear
1:55 PM 32.0 °F 22.5 °F 21.2 °F 64% 30.09 in 10.0 mi NW 12.7 mph - N/A   Clear
2:15 PM 32.0 °F 23.0 °F 21.2 °F 64% 30.09 in 10.0 mi NW 11.5 mph 19.6 mph N/A   Clear
2:35 PM 32.0 °F 23.0 °F 19.4 °F 60% 30.09 in 10.0 mi NW 11.5 mph 17.3 mph N/A   Clear
2:55 PM 32.0 °F 23.0 °F 19.4 °F 60% 30.10 in 10.0 mi NW 11.5 mph 17.3 mph N/A   Clear
3:15 PM 33.8 °F 25.3 °F 19.4 °F 56% 30.10 in 10.0 mi NW 11.5 mph - N/A   Clear
3:35 PM 32.0 °F 22.5 °F 19.4 °F 60% 30.10 in 10.0 mi NW 12.7 mph - N/A   Clear
3:55 PM 32.0 °F 23.0 °F 19.4 °F 60% 30.12 in 10.0 mi NW 11.5 mph - N/A   Clear
4:15 PM 32.0 °F 23.0 °F 19.4 °F 60% 30.13 in 10.0 mi NW 11.5 mph 16.1 mph N/A   Clear
4:35 PM 32.0 °F 24.8 °F 19.4 °F 60% 30.13 in 10.0 mi NW 8.1 mph - N/A   Clear
4:55 PM 32.0 °F 26.4 °F 17.6 °F 55% 30.13 in 10.0 mi NNW 5.8 mph - N/A   Clear
5:15 PM 30.2 °F - 19.4 °F 64% 30.14 in 10.0 mi Calm Calm - N/A   Scattered Clouds
5:35 PM 30.2 °F 24.3 °F 17.6 °F 60% 30.14 in 10.0 mi NW 5.8 mph - N/A   Scattered Clouds
5:55 PM 30.2 °F 22.6 °F 19.4 °F 64% 30.16 in 10.0 mi WNW 8.1 mph - N/A   Scattered Clouds
6:15 PM 30.2 °F 26.7 °F 19.4 °F 64% 30.16 in 10.0 mi WNW 3.5 mph - N/A   Clear
6:35 PM 28.4 °F 23.3 °F 19.4 °F 69% 30.16 in 10.0 mi WNW 4.6 mph - N/A   Clear
6:55 PM 30.2 °F 26.7 °F 17.6 °F 60% 30.16 in 10.0 mi West 3.5 mph - N/A   Clear
7:15 PM 28.4 °F 23.3 °F 19.4 °F 69% 30.16 in 10.0 mi NNW 4.6 mph - N/A   Clear
7:35 PM 30.2 °F 26.7 °F 17.6 °F 60% 30.17 in 10.0 mi NW 3.5 mph - N/A   Clear
7:55 PM 30.2 °F 25.4 °F 17.6 °F 60% 30.17 in 10.0 mi NNW 4.6 mph - N/A   Clear
8:15 PM 30.2 °F - 17.6 °F 60% 30.18 in 10.0 mi Calm Calm - N/A   Clear
8:35 PM 30.2 °F 24.3 °F 17.6 °F 60% 30.18 in 10.0 mi NNW 5.8 mph - N/A   Clear
8:55 PM 30.2 °F 26.7 °F 17.6 °F 60% 30.19 in 10.0 mi NNW 3.5 mph - N/A   Clear
9:15 PM 30.2 °F 26.7 °F 17.6 °F 60% 30.19 in 10.0 mi NNW 3.5 mph - N/A   Clear
9:35 PM 30.2 °F 25.4 °F 19.4 °F 64% 30.20 in 10.0 mi NW 4.6 mph - N/A   Clear
9:55 PM 30.2 °F 26.7 °F 17.6 °F 60% 30.21 in 10.0 mi NNW 3.5 mph - N/A   Clear
10:15 PM 30.2 °F - 17.6 °F 60% 30.20 in 10.0 mi Calm Calm - N/A   Clear
10:35 PM 30.2 °F 26.7 °F 17.6 °F 60% 30.20 in 10.0 mi North 3.5 mph - N/A   Clear
10:55 PM 28.4 °F - 17.6 °F 64% 30.21 in 10.0 mi Calm Calm - N/A   Clear
11:15 PM 28.4 °F - 19.4 °F 69% 30.18 in 10.0 mi Calm Calm - N/A   Clear
11:35 PM 28.4 °F - 19.4 °F 69% 30.19 in 10.0 mi Calm Calm - N/A   Clear
11:55 PM 28.4 °F - 19.4 °F 69% 30.20 in 10.0 mi Calm Calm - N/A   Clear